Regional Weather Roundup
Issued by NWS Portland, ME

Home | Current Version | Previous Version | Text Only | Print | Product List | Glossary On
Versions: 1 2 3 4 5 6 7 8 9 10 11 12 13 14 15 16 17 18 19 20 21 22 23 24 25 26 27 28 29 30 31 32 33 34 35 36 37 38 39 40 41 42 43 44 45 46 47 48 49 50
000
ASUS41 KGYX 041710
RWRGYX
WEATHER ROUNDUP FOR MAINE AND NEW HAMPSHIRE
NATIONAL WEATHER SERVICE GRAY ME
100 PM EDT MON MAY 04 2015

MEZ002-005-006-010-012-015-018-020-021-024-026-027-029-041800-
MAINE

CITY           SKY/WX    TMP DP  RH WIND       PRES   REMARKS
PORTLAND       MOSUNNY   70  47  43 S14       30.10F
SANFORD        SUNNY     82  37  20 W10G17    30.10F
BAR HARBOR     SUNNY     63  48  59 S12       30.12F
WISCASSET      SUNNY     70  47  43 S7        30.12F
ROCKLAND       SUNNY     57  46  67 S9        30.11F
FRYEBURG       SUNNY     83  37  19 SW9G28    30.07F
LEWISTONAUBURN SUNNY     79  43  27 SW13G18   30.08F
AUGUSTA        SUNNY     78  45  30 MISG      30.08F
WATERVILLE     SUNNY     79  43  27 S10G16    30.04F
BANGOR         MOSUNNY   75  45  34 S14       30.07F
GREENVILLE       N/A     73  38  27 VRB3      30.03F
MILLINOCKET    MOSUNNY   80  39  23 SW9G20    30.03F
HOULTON        MOSUNNY   77  38  24 SW17G26   30.01F
PRESQUE ISLE   PTSUNNY   79  37  22 W16       29.98F
FRENCHVILLE    MOSUNNY   77  38  24 W14G25    29.94F
CARIBOU        PTSUNNY   78  39  24 SW15G26   29.95F
$$

NHZ002-005-008-009-011-012-014-041800-
NEW HAMPSHIRE

CITY           SKY/WX    TMP DP  RH WIND       PRES   REMARKS
PORTSMOUTH     MOSUNNY   81  46  28 SW9       30.09F
ROCHESTER      MOSUNNY   80  36  20 W8        30.09F
NASHUA         MOSUNNY   85  38  18 SW8G16    30.11F
MANCHESTER     PTSUNNY   83  33  16 SW12      30.09F
CONCORD        MOSUNNY   84  34  16 W10G17    30.09F
LACONIA        PTSUNNY   81  37  21 W15       30.06F
PLYMOUTH       FAIR      80  46  29 W9        30.07F
BERLIN         SUNNY     80  35  19 SW10G20   30.07F
WHITEFIELD     SUNNY     80  31  16 SW10G18   30.08F
JAFFREY        MOSUNNY   79  36  21 SW9       30.14F
KEENE          SUNNY     81  36  19 S16G25    30.11F
LEBANON        MOSUNNY   82  36  19 S10G17    30.07F
MT WASHINGTON  NOT AVBL
$$

VTZ005-007-008-041800-
VERMONT

CITY           SKY/WX    TMP DP  RH WIND       PRES   REMARKS
ST JOHNSBURY     N/A     80  37  21 MISG      30.04F
MONTPELIER     PTSUNNY   77  36  22 W9G23     30.12F
BURLINGTON     MOSUNNY   82  38  20 S16G23    30.03F
$$

MAZ007-012-024-CTZ003-RIZ002-NYZ038-NYZ072-041800-
SOUTHERN NEW ENGLAND AND NY

CITY           SKY/WX    TMP DP  RH WIND       PRES   REMARKS
BOSTON         MOSUNNY   80  46  30 S12       30.13F
WORCESTER      MOSUNNY   79  34  19 W13G24    30.16F
NANTUCKET      SUNNY     58  50  75 S13       30.25F
PROVIDENCE     MOSUNNY   66  50  56 SE12      30.18F
HARTFORD       PTSUNNY   84  43  23 S9G22     30.12F
ALBANY         MOSUNNY   82  42  24 S8        30.09F
NEW YORK CITY  MOSUNNY   82  43  25 S15G22    30.17F
$$

ANZ081-ANZ082-ANZ150-NHZ014-MEZ023>029-041800-
COASTAL MARINE OBSERVATIONS

STATION/POSITION TIME  TEMP    WIND        PRES    WAVE
                       AIR SEA DIR/SP/G            HT/PER
                 (UTC) (F)     (DEG/KT/KT) (MB)    (FT/S)
$$

.............KEY..............
   WCI - WIND CHILL
   TC  - TEMPERATURE IN CELSIUS
   VSB - VISIBILITY IN MILES
   HX  - HEAT INDEX
   FAIR- INDICATES FEW OR NO CLOUDS BELOW 12,000 FT, WITH NO
         SIGNIFICANT WEATHER AND/OR OBSTRUCTIONS TO VISIBILITY.




USA.gov is the U.S. government's official web portal to all federal, state and local government web resources and services.